Tracking 19485 objects as of 22-Jan-2019
HD Live streaming from Space Station
objects crossing your sky now

FLOCK 3P 88

Track FLOCK 3P 88 now!
10-day predictions
FLOCK 3P 88 is classified as:


NORAD ID: 41982
Int'l Code: 2017-008AL
Perigee: 491.7 km
Apogee: 500.9 km
Inclination: 97.4 °
Period: 94.4 minutes
Semi major axis: 6867 km
RCS: Unknown
Launch date: February 15, 2017
Source: United States (US)
Launch site: SRIHARIKOTA (SRI)
aabbcc
Your satellite tracking list
Your tracking list is empty




NASA's NSSDC Master Catalog

Two Line Element Set (TLE):
1 41982U 17008AL  19020.76695910 +.00001580 +00000-0 +65155-4 0  9995
2 41982 097.4280 089.5143 0006674 316.3833 043.6877 15.25534308106217
Source of the keplerian elements: AFSPC